Weather History for Alliance, NE

Change the Weather History Date:

Monday, March 26, 2012

  Actual Average Record
Temperature  
Mean Temperature 61 °F 40 °F  
Max Temperature 83 °F 54 °F 83 °F (2012)
Min Temperature 38 °F 25 °F -3 °F (1931)
Degree Days  
Heating Degree Days 4 25  
Month to date heating degree days 540 760  
Since 1 July heating degree days 5718 6164  
Cooling Degree Days 0 0  
Month to date cooling degree days 0 0  
Year to date cooling degree days 0 0  
Growing Degree Days 10 (Base 50)    
Moisture  
Dew Point 37 °F    
Average Humidity 55    
Maximum Humidity 100    
Minimum Humidity 10    
Precipitation  
Precipitation 0.00 in 0.05 in 0.60 in (1902)
Month to date precipitation 0.00 0.56  
Year to date precipitation 0.86 1.12  
Sea Level Pressure  
Sea Level Pressure 29.65 in    
Wind  
Wind Speed 20 mph (South)    
Max Wind Speed 46 mph    
Max Gust Speed 60 mph    
Visibility 5 miles    
Events Fog    
T = Trace of Precipitation, MM = Missing Value Source: NWS Daily Summary

Daily Weather History Graph

Daily Weather History Graph

Search for Another Location

Airport:

Trip Planner

Search our weather history database for the weather conditions in past years. The results will help you decide how hot, cold, wet, or windy it might be!

Date:

Astronomy

Mar. 26, 2012 Rise Set
Actual Time 6:43 AM MDT 7:10 PM MDT
Civil Twilight 6:15 AM MDT 7:38 PM MDT
Nautical Twilight 5:42 AM MDT 8:11 PM MDT
Astronomical Twilight 5:08 AM MDT 8:45 PM MDT
Moon 8:29 AM MDT (3/26) 11:28 PM MDT (3/26)
Length of Visible Light 13h 23m
Length of Day
12h 27m
Waxing Crescent, 15% of the Moon is Illuminated
Mar 26
Waxing Crescent
Mar 30
First Quarter
Apr 6
Full
Apr 13
Last Quarter
Apr 21
New

Hourly Weather History & Observations

Time (MDT) Temp. Windchill Dew Point Humidity Pressure Visibility Wind Dir Wind Speed Gust Speed Precip Events Conditions
12:10 AM 44.6 °F - 42.8 °F 93% 29.90 in 1.2 mi Calm Calm - N/A   Clear
12:12 AM 42.8 °F - 42.8 °F 100% 29.90 in 1.0 mi Calm Calm - N/A   Mist
12:20 AM 44.6 °F - 42.8 °F 93% 29.90 in 0.2 mi Calm Calm - N/A Fog Fog
12:53 AM 42.1 °F 40.2 °F 42.1 °F 100% 29.86 in 0.2 mi SSE 3.5 mph - N/A Fog Fog
1:03 AM 41.0 °F 38.0 °F 39.2 °F 93% 29.88 in 0.2 mi SE 4.6 mph - N/A Fog Fog
1:53 AM 43.0 °F - 42.1 °F 97% 29.83 in 0.2 mi Calm Calm - N/A Fog Fog
2:53 AM 39.0 °F - 39.0 °F 100% 29.79 in 0.2 mi Calm Calm - N/A Fog Fog
3:53 AM 42.1 °F - 41.0 °F 96% 29.77 in 0.2 mi Calm Calm - N/A Fog Fog
4:53 AM 45.0 °F 43.5 °F 44.1 °F 97% 29.73 in 0.2 mi ESE 3.5 mph - N/A Fog Fog
5:30 AM 48.2 °F - 48.2 °F 100% 29.77 in 0.2 mi SSE 5.8 mph - N/A Fog Fog
5:53 AM 51.1 °F - 51.1 °F 100% 29.70 in 0.5 mi SSE 12.7 mph - 0.01 in Fog Fog
6:53 AM 51.1 °F - 51.1 °F 100% 29.69 in 0.5 mi SSE 9.2 mph - N/A Fog Fog
7:53 AM 51.1 °F - 51.1 °F 100% 29.69 in 0.2 mi SSE 13.8 mph - N/A Fog Fog
8:53 AM 52.0 °F - 51.1 °F 97% 29.68 in 0.8 mi South 10.4 mph - N/A   Overcast
9:19 AM 51.8 °F - 51.8 °F 100% 29.72 in 1.2 mi SSE 12.7 mph - N/A   Overcast
9:28 AM 51.8 °F - 51.8 °F 100% 29.72 in 2.0 mi South 13.8 mph - N/A   Overcast
9:50 AM 51.8 °F - 51.8 °F 100% 29.71 in 4.0 mi South 10.4 mph - N/A   Overcast
9:53 AM 52.0 °F - 51.1 °F 97% 29.68 in 4.0 mi South 10.4 mph - N/A   Overcast
10:29 AM 55.4 °F - 51.8 °F 88% 29.69 in 5.0 mi South 9.2 mph - N/A   Mostly Cloudy
10:48 AM 55.4 °F - 51.8 °F 88% 29.68 in 6.0 mi South 9.2 mph - N/A   Partly Cloudy
10:53 AM 55.9 °F - 51.1 °F 84% 29.64 in 7.0 mi South 6.9 mph - N/A   Partly Cloudy
11:53 AM 61.0 °F - 50.0 °F 67% 29.59 in 10.0 mi South 10.4 mph - N/A   Clear
12:53 PM 77.0 °F - 41.0 °F 28% 29.50 in 10.0 mi South 16.1 mph 26.5 mph N/A   Clear
1:53 PM 80.1 °F - 27.0 °F 14% 29.43 in 10.0 mi South 28.8 mph 40.3 mph N/A   Clear
2:53 PM 80.1 °F - 30.9 °F 17% 29.40 in 10.0 mi South 31.1 mph 41.4 mph N/A   Clear
3:53 PM 80.1 °F - 21.9 °F 12% 29.36 in 10.0 mi South 34.5 mph 51.8 mph N/A   Clear
4:53 PM 82.0 °F - 19.0 °F 10% 29.30 in 10.0 mi SSW 40.3 mph 49.5 mph N/A   Clear
5:53 PM 75.9 °F - 15.1 °F 10% 29.35 in 8.0 mi West 36.8 mph 58.7 mph N/A   Squalls
6:01 PM 69.8 °F - 19.4 °F 15% 29.46 in 4.0 mi WNW 44.9 mph 55.2 mph N/A   Haze
6:53 PM 64.9 °F - 10.9 °F 12% 29.44 in 10.0 mi WNW 24.2 mph 36.8 mph N/A   Clear
7:53 PM 61.0 °F - 6.1 °F 11% 29.50 in 10.0 mi West 19.6 mph 29.9 mph N/A   Clear
8:53 PM 55.9 °F - 17.1 °F 22% 29.60 in 10.0 mi WNW 32.2 mph 47.2 mph N/A   Clear
9:53 PM 51.1 °F - 18.0 °F 27% 29.60 in 10.0 mi West 23.0 mph 33.4 mph N/A   Clear
10:53 PM 52.0 °F - 14.0 °F 22% 29.61 in 10.0 mi West 33.4 mph 48.3 mph N/A   Clear
11:53 PM 51.1 °F - 12.9 °F 22% 29.63 in 10.0 mi West 40.3 mph 54.1 mph N/A   Clear